This is the latest recevied weather packets stored in our database for station/object M7PDA-1. If no packets are shown the sender has not sent any weather packets the latest 10 day(s).
| Time | Temp. | Humidity | Pressure | Rain* | Wind** | Luminosity | Snow |
|---|---|---|---|---|---|---|---|
| 1787436466 | 10.56° C | 65% | 1027.8 hPa | - | - | - | - |
| 1787435565 | 10.56° C | 64% | 1027.8 hPa | - | - | - | - |
| 1787434665 | 11.11° C | 64% | 1027.6 hPa | - | - | - | - |
| 1787433764 | 11.11° C | 64% | 1027.6 hPa | - | - | - | - |
| 1787432863 | 11.11° C | 63% | 1027.7 hPa | - | - | - | - |
| 1787431962 | 11.67° C | 63% | 1027.6 hPa | - | - | - | - |
| 1787431062 | 11.67° C | 62% | 1027.6 hPa | - | - | - | - |
| 1787430161 | 12.22° C | 62% | 1027.5 hPa | - | - | - | - |
| 1787429260 | 12.78° C | 61% | 1027.4 hPa | - | - | - | - |
| 1787428359 | 12.78° C | 60% | 1027.3 hPa | - | - | - | - |
| 1787427458 | 13.33° C | 59% | 1027.3 hPa | - | - | - | - |
| 1787426558 | 13.89° C | 59% | 1027.2 hPa | - | - | - | - |
| 1787425657 | 14.44° C | 58% | 1027.1 hPa | - | - | - | - |
| 1787424756 | 14.44° C | 57% | 1026.9 hPa | - | - | - | - |
| 1787423855 | 15° C | 56% | 1026.9 hPa | - | - | - | - |
| 1787422955 | 15.56° C | 55% | 1026.7 hPa | - | - | - | - |
| 1787422054 | 15.56° C | 54% | 1026.6 hPa | - | - | - | - |
| 1787421153 | 16.67° C | 53% | 1026.5 hPa | - | - | - | - |
| 1787420252 | 17.22° C | 52% | 1026.4 hPa | - | - | - | - |
| 1787419351 | 17.78° C | 52% | 1026.2 hPa | - | - | - | - |
| 1787418451 | 17.78° C | 51% | 1026.1 hPa | - | - | - | - |
| 1787417550 | 18.33° C | 51% | 1026 hPa | - | - | - | - |
| 1787416649 | 19.44° C | 51% | 1025.9 hPa | - | - | - | - |
| 1787415748 | 19.44° C | 51% | 1025.7 hPa | - | - | - | - |
| 1787414847 | 20° C | 51% | 1025.7 hPa | - | - | - | - |
* Rain since midnight (hover to see other rain measurements)
** Current wind speed in m/s (hover to see current wind gust speed)